Location: Nashville
(36.1660°N, 86.7840°W)
Time: 03:34:55
(UTC-05:00)

Tiros 1 - Pass Details

Date: 30 January 2022
Orbit: 630 x 663 km, 48.4° (Epoch: 29 May)

Event Time Altitude Azimuth Distance (km) Brightness Sun altitude
Rises 18:57:58 0° 212° (SSW) 2,965 11.1 -21.6°
Reaches altitude 10° 19:00:25 10° 204° (SSW) 2,061 10.1 -22.1°
Enters shadow 19:04:14 37° 154° (SSE) 1,020 7.9 -22.8°
